Powrót do katalogu

CZ-3C DEB

LostGTO
NORAD 40861·DEBRIS·🇨🇳 China

Wystrzelony Feb 24, 2012 z Xichang Satellite Launch Center

Loading…

TLE

NieaktualneSource: Space-Track

Epoka: Mar 19, 2026, 21:55 UTC

1 40861U 12008AB  26078.91347986 -.00000261  00000-0 -27578-2 0  9992
2 40861  21.2943   6.5741 7102767 220.3519  56.0436  2.28984746 94420

Śledź CZ-3C DEB w czasie rzeczywistym z AllMySat

Download on the App Store